Regional Weather Roundup
Issued by NWS

Home | Current Version | Previous Version | Graphics & Text | Print | Product List | Glossary On
Versions: 1 2 3 4 5 6 7 8 9 10 11 12 13 14 15 16 17 18 19 20 21 22 23 24 25 26 27 28 29 30 31 32 33 34 35 36 37 38 39 40 41 42 43 44 45 46 47 48 49 50
000
ASUS45 KTFX 310619
RWRMT
MONTANA HOURLY WEATHER ROUNDUP
NATIONAL WEATHER SERVICE GREAT FALLS MT
1219 AM MDT THU JUL 31 2014

NOTE: "FAIR" INDICATES FEW OR NO CLOUDS BELOW 12000 FEET WITH NO
SIGNIFICANT WEATHER AND/OR OBSTRUCTIONS TO VISIBILITY.

* THESE STATIONS ARE NOT UNDER NWS QUALITY CONTROL. THEY DO NOT
   REPORT WEATHER SUCH AS PRECIPITATION OR FOG.

MTZ001>007-043-310700-
WEST OF THE DIVIDE
CITY           SKY/WX    TMP DP  RH WIND       PRES   REMARKS
KALISPELL      PTCLDY    64  46  52 W3        30.10F
MISSOULA       PTCLDY    75  45  34 SE6       30.13R
BUTTE          PTCLDY    63  45  52 N7        30.30F
MULLAN PASS    PTCLDY    70  37  30 NW3       30.31S
* ESSEX        N/A       66  45  47 NE1        N/A
* LINCOLN      N/A       61  51  70 NW2G8      N/A
* LOOKOUT PASS N/A       66  46  49 NE1        N/A
* POLSON       N/A       71  46  41 E2         N/A
* RONAN APT    MOCLDY    75  52  45 N6         N/A
* SEELEY LAKE  N/A       59  45  60 E2G7       N/A
* THOMP F APT  PTCLDY    63  40  43 N6         N/A
* YAAK HILL    N/A       70  47  44 E1         N/A
$$

MTZ008-052>055-310700-
SOUTHWEST MONTANA
CITY           SKY/WX    TMP DP  RH WIND       PRES   REMARKS
BOZEMAN        MOCLDY    63  46  54 SE3       30.22S
DILLON         PTCLDY    63  45  52 S12       30.27F
W YELLOWSTONE  MOCLDY    50  41  71 NE3       30.38R
* THREE FORKS  MOCLDY    64  54  70 N/A        N/A
* BOULDER HILL N/A       62  38  41 N/A        N/A
* MONIDA PASS  N/A       54  48  80 SW1G6      N/A
* RAYNOLDS PAS N/A       53  36  53 SE4        N/A
* WHITEHALL    N/A       71  44  38 NW9        N/A
* WISE RIVER   N/A       58  45  62 S4         N/A
$$

MTZ009>010-012-014-046-048-049-054-310700-
EAST SLOPES AND CENTRAL MONTANA
CITY           SKY/WX    TMP DP  RH WIND       PRES   REMARKS
CUT BANK       CLOUDY    72  39  30 W12       30.12F
GREAT FALLS    PTCLDY    72  43  35 W5        30.12S
HELENA         CLOUDY    79  43  28 SW12      30.16F
MALMSTROM AFB  PTCLDY    68  45  44 S10       30.13S
* CONRAD       MOCLDY    70  46  42 W8         N/A
* DEARBORN     N/A       68  50  53 SE4        N/A
* EAST GLACIER N/A       74  35  24 NW21G27    N/A
* MONARCH      N/A       63  40  43 S6         N/A
* PENDROY      N/A       63  45  52 NW6        N/A
* ROGERS PASS  N/A       62  43  50 W1         N/A
* SAINT MARY   N/A       65  47  52 SE3G16     N/A
* SWEET GRASS  N/A       70  43  38 W12        N/A
* WHITE SULPH  N/A       62  45  54 E3         N/A
$$

MTZ011-013-016-021-035-040-045-047-050-051-310700-
NORTH CENTRAL MONTANA
CITY           SKY/WX    TMP DP  RH WIND       PRES   REMARKS
HAVRE          CLOUDY    75  46  36 SE6       30.02F
LEWISTOWN      MOCLDY    70  41  35 SE6       30.17S
* FORT BENTON  PTCLDY    75  43  32 S5        30.08R
* CHESTER      N/A       76  41  29 NW8G13     N/A
* DENTON       N/A       73  41  32 S8         N/A
* GEYSER       N/A       71  43  37 SW11       N/A
* JUDITH GAP   N/A       66  39  37 N/A        N/A
* LOMA         N/A       76  43  31 S2         N/A
$$

MTZ017>020-022>027-061-062-310700-
NORTHEAST MONTANA
CITY           SKY/WX    TMP DP  RH WIND       PRES   REMARKS
GLASGOW        PTCLDY    70  48  46 E12       30.05S
GLENDIVE       PTCLDY    66  48  52 S7        30.12F
JORDAN         PTCLDY    70  41  35 CALM      30.09F
SIDNEY         PTCLDY    63  48  58 N6        30.12R
WOLF POINT     PTCLDY    72  52  49 E8        30.07S
* BEAVER HILL  N/A       65  49  56 SE11       N/A
* CIRCLE       N/A       69  52  55 N/A        N/A
* LINDSAY DVD  N/A       64  50  61 SE3        N/A
$$

MTZ028>042-056>058-310700-
SOUTHCENTRAL AND SOUTHEAST MONTANA
CITY           SKY/WX    TMP DP  RH WIND       PRES   REMARKS
BAKER          PTCLDY    61  48  62 CALM      30.16F
BILLINGS       PTCLDY    79  36  21 SE8       30.14F
LIVINGSTON     MOCLDY    64  39  40 W7        30.21R
MILES CITY     CLEAR     72  45  38 S7        30.11F
* LAUREL APT   MOCLDY    70  36  29 N/A        N/A
* ROUNDUP APT  PTCLDY    72  34  25 N/A        N/A
* ALZADA       N/A       63  48  58 E4         N/A
* HYSHAM       N/A       75  39  27 SE6        N/A
* LAME DEER    N/A       71  38  30 SE8        N/A
* REED POINT   N/A       62  47  58 N/A        N/A
* ROSCOE HILL  N/A       68  33  27 W2         N/A
$$

REGIONAL REPORTS...DAKOTAS
CITY           SKY/WX    TMP DP  RH WIND       PRES   REMARKS
WILLISTON      MOCLDY    70  54  57 NE8       30.16R
DICKINSON      PTCLDY    57  54  90 S5        30.13F
CROSBY         N/A       63  63 100 S7        30.13R
TIOGA          LGT RAIN  59  59 100 S10       30.13F
WATFORD CITY   MOCLDY    61  55  81 N8        30.15R
BISMARCK       MOCLDY    63  57  81 CALM      30.11S
GRAND FORKS    CLEAR     61  57  87 W6        30.04S
FARGO          MOCLDY    61  54  78 CALM      30.05R
BUFFALO SD     CLEAR     66  52  61 W5        30.11F
RAPID CITY     MOCLDY    63  50  63 NW10      30.18S
$$

REGIONAL REPORTS...WYOMING/IDAHO/WASHINGTON
CITY           SKY/WX    TMP DP  RH WIND       PRES   REMARKS
GILLETTE       MOCLDY    54  46  74 S5        30.25R
SHERIDAN       PTCLDY    55  45  69 S5        30.21S
YELLOWSTONE LA PTCLDY    48  41  77 NW3       30.48S
SALMON         CLEAR     66  46  49 E7        30.23R
MULLAN PASS    PTCLDY    70  37  30 NW3       30.31S
SAND POINT     CLEAR     64  54  70 CALM      30.02R
SPOKANE        PTCLDY    81  30  16 SW8       30.02S
$$

REGIONAL REPORTS...ALBERTA
CITY           SKY/WX    TMP DP  RH WIND       PRES   REMARKS
CALGARY        MOCLDY    75  39  27 W7G18     30.07F
LETHBRIDGE     FAIR      68  46  45 W21       30.10R
EDMONTON       PTCLDY    68  66  93 SE8       30.02S
WATERTON GATE  N/A       63  46  54 SW14G20    N/A
CARDSTON       N/A       66  45  47 SW7        N/A
MILK RIVER     N/A       64  46  52 W6         N/A
$$

REGIONAL REPORTS...SASKATCHEWAN
CITY           SKY/WX    TMP DP  RH WIND       PRES   REMARKS
SWIFT CURRENT  CLEAR     64  48  56 SW6       30.04S
REGINA         FAIR      64  59  84 SE10      30.08F
VAL MARIE      N/A       64  50  61 S3         N/A
ASSINIBOIA     N/A       68  55  63 SE8        N/A

$$




USA.gov is the U.S. government's official web portal to all federal, state and local government web resources and services.